This is the latest recevied weather packets stored in our database for station/object W8LMG. If no packets are shown the sender has not sent any weather packets the latest 10 day(s).
| Time | Temp. | Humidity | Pressure | Rain* | Wind** | Luminosity | Snow |
|---|---|---|---|---|---|---|---|
| 1778130955 | 12.22° C | 90% | 1013.1 hPa | 0 mm | - | 0 W/m² | - |
| 1778130652 | 12.22° C | 92% | 1013 hPa | 0 mm | - | 0 W/m² | - |
| 1778130349 | 12.22° C | 92% | 1013 hPa | 0 mm | - | 0 W/m² | - |
| 1778130045 | 12.22° C | 90% | 1012.9 hPa | 0 mm | - | 0 W/m² | - |
| 1778129742 | 12.78° C | 91% | 1013 hPa | 0 mm | - | 0 W/m² | - |
| 1778129439 | 12.78° C | 92% | 1012.7 hPa | 0 mm | - | 0 W/m² | - |
| 1778129136 | 12.78° C | 91% | 1013 hPa | 0 mm | - | 0 W/m² | - |
| 1778128833 | 12.78° C | 91% | 1012.7 hPa | 0 mm | - | 0 W/m² | - |
| 1778128528 | 13.33° C | 95% | 1012.4 hPa | 0 mm | - | 0 W/m² | - |
| 1778128226 | 12.78° C | 95% | 1012.2 hPa | 0 mm | - | 0 W/m² | - |
| 1778127922 | 13.33° C | 98% | 1012.4 hPa | 0 mm | - | 0 W/m² | - |
| 1778127617 | 13.33° C | 99% | 1012.4 hPa | 0 mm | - | 0 W/m² | - |
| 1778127315 | 13.33° C | 99% | 1012.5 hPa | 0 mm | - | 0 W/m² | - |
| 1778127012 | 13.33° C | 98% | 1012.3 hPa | 0 mm | - | 0 W/m² | - |
| 1778126708 | 13.33° C | 98% | 1012.4 hPa | 0 mm | - | 0 W/m² | - |
| 1778126403 | 13.33° C | 97% | 1012 hPa | 0 mm | - | 0 W/m² | - |
| 1778126100 | 13.33° C | 97% | 1011.9 hPa | 0 mm | - | 0 W/m² | - |
| 1778125796 | 13.33° C | 97% | 1012 hPa | 0 mm | - | 0 W/m² | - |
| 1778125494 | 13.89° C | 97% | 1011.7 hPa | 0 mm | - | 0 W/m² | - |
| 1778125192 | 13.89° C | 97% | 1011.4 hPa | 0 mm | - | 0 W/m² | - |
| 1778124889 | 13.89° C | 97% | 1011.8 hPa | 0 mm | - | 0 W/m² | - |
| 1778124586 | 13.33° C | 98% | 1012.3 hPa | 0 mm | - | 0 W/m² | - |
| 1778124283 | 13.33° C | 99% | 1011.9 hPa | 0 mm | - | 0 W/m² | - |
| 1778123979 | 13.89° C | 99% | 1012.3 hPa | 0 mm | - | 0 W/m² | - |
| 1778123676 | 13.89° C | 99% | 1013.1 hPa | 0 mm | - | 0 W/m² | - |
* Rain latest hour (hover to see other rain measurements)
** Current wind speed in m/s (hover to see current wind gust speed)